Location: Okie-Tex Star Party
(36.8978°N, 102.9520°W)
Time: 10:07:39
(UTC-05:00)

Amateur Radio Satellites - All Passes

Search period start: 23 October 2014 09:37
Search period end: 24 October 2014 09:37
Location: Okie-Tex Star Party, 36.8978°N, 102.9520°W

Satellite Date Start Highest point End Downlink Frequencies (MHz)
Time Altitude Azimuth
Saudisat 1A 23 Oct 10:46:06 10:47:42 12° 317° (NW) 10:49:17 436.775 MHz
PANSAT 23 Oct 10:50:25 10:53:29 23° 178° (S) 10:56:32 not established
MaSat-1 23 Oct 10:52:34 10:55:07 56° 65° (ENE) 10:57:28 437.345 MHz
HO-68 23 Oct 10:53:12 11:00:25 75° 104° (ESE) 11:07:35 435.675 MHz FM
ZACube-1 23 Oct 11:02:39 11:04:14 12° 91° (E) 11:05:47 437.345 MHz
UKube-1 23 Oct 11:09:03 11:13:11 41° 99° (E) 11:17:17 145.840 MHz, 145.915 MHz
RS-15 23 Oct 11:15:11 11:23:03 22° 259° (WSW) 11:31:11 29.354 - 29.394 USB, Beacon 29.352 USB
FUNcube-1 23 Oct 11:45:46 11:49:46 39° 98° (E) 11:53:40 145.950 - 145.970 MHz USB
Oscar 11 23 Oct 11:52:02 11:56:18 65° 285° (WNW) 12:00:33 145.825 FM, Beacon 2401.500 USB
PANSAT 23 Oct 12:30:26 12:33:06 18° 191° (S) 12:35:45 not established
ZACube-1 23 Oct 12:36:48 12:40:55 48° 286° (WNW) 12:44:55 437.345 MHz
HO-68 23 Oct 12:42:26 12:47:21 20° 301° (WNW) 12:52:15 435.675 MHz FM
UKube-1 23 Oct 12:46:19 12:49:01 16° 294° (WNW) 12:51:42 145.840 MHz, 145.915 MHz
PCSat 23 Oct 12:55:49 12:56:47 10° 42° (NE) 12:57:46 145.825 MHz
ISS 23 Oct 12:57:11 12:58:38 12° 127° (SE) 13:00:05 145.800 FM
Oscar 10/S400 23 Oct 12:59:06 13:20:27 30° 152° (SSE) 13:36:09 145.825 - 145.975 CW/USB, Beacon 145.810 USB
KITSAT 1 23 Oct 13:15:09 13:23:03 61° 113° (ESE) 13:30:58 435.175 FM
FUNcube-1 23 Oct 13:23:18 13:25:47 15° 294° (WNW) 13:28:14 145.950 - 145.970 MHz USB
Oscar 16 23 Oct 13:23:37 13:26:45 17° 64° (ENE) 13:29:54 437.025 USB, Beacon 2401.1428
ITAMSAT 1 23 Oct 13:48:13 13:49:20 11° 60° (ENE) 13:50:26 435.822 SSB
Sapphire 23 Oct 14:13:17 14:18:23 40° 57° (ENE) 14:23:26 437.095 MHz 1200 baud AX-25 AFSK
Oscar 19 23 Oct 14:15:09 14:20:07 50° 72° (ENE) 14:25:05 437.125 CW, 437.150 USB
SO-50 23 Oct 14:18:08 14:22:36 81° 119° (ESE) 14:27:12 436.795 FM
AO-27 23 Oct 14:29:38 14:34:03 29° 68° (ENE) 14:38:28 436.795 MHz FM
ISS 23 Oct 14:31:41 14:34:57 56° 322° (NW) 14:38:15 145.800 FM
PCSat 23 Oct 14:35:49 14:41:14 67° 61° (ENE) 14:46:37 145.825 MHz
JAS-1B 23 Oct 14:42:22 14:48:30 74° 74° (ENE) 14:54:10 435.800 - 435.900 CW/SSB
Oscar 16 23 Oct 15:00:33 15:05:37 56° 259° (W) 15:10:42 437.025 USB, Beacon 2401.1428
AO-Echo 23 Oct 15:07:53 15:12:43 84° 76° (ENE) 15:17:44 ?
KITSAT 1 23 Oct 15:11:57 15:18:54 31° 312° (NW) 15:25:53 435.175 FM
Uribyol 2 23 Oct 15:17:09 15:22:22 87° 76° (ENE) 15:27:38 436.500 FM
ITAMSAT 1 23 Oct 15:22:48 15:28:01 88° 256° (WSW) 15:33:16 435.822 SSB
AO-7 23 Oct 15:28:38 15:33:55 19° 54° (NE) 15:39:11 29.400 - 29.500 MHz
Gurwin Techsat 1B 23 Oct 15:33:53 15:39:05 60° 73° (ENE) 15:44:19 435.225 FM
TMSAT-1 23 Oct 15:46:08 15:51:18 57° 73° (ENE) 15:56:30 436.925 FM
UOSAT-12 23 Oct 15:49:54 15:54:26 62° 117° (ESE) 15:59:05 437.025 FM, 437.400 FM
Oscar 19 23 Oct 15:56:26 15:59:42 17° 267° (W) 16:02:58 437.125 CW, 437.150 USB
Sapphire 23 Oct 15:57:10 16:01:33 25° 253° (WSW) 16:05:55 437.095 MHz 1200 baud AX-25 AFSK
SO-50 23 Oct 16:01:42 16:03:46 13° 317° (NW) 16:05:51 436.795 FM
AO-27 23 Oct 16:08:52 16:13:26 31° 263° (W) 16:18:03 436.795 MHz FM
ISS 23 Oct 16:11:00 16:12:15 12° 340° (NNW) 16:13:29 145.800 FM
PCSat 23 Oct 16:21:16 16:24:00 14° 257° (WSW) 16:26:44 145.825 MHz
JAS-1B 23 Oct 16:37:45 16:39:40 12° 268° (W) 16:41:32 435.800 - 435.900 CW/SSB
Uosat F 23 Oct 16:51:54 16:56:25 35° 70° (ENE) 17:00:57 435.120 FM
Gurwin Techsat 1B 23 Oct 17:16:30 17:19:25 15° 268° (W) 17:22:20 435.225 FM
AO-7 23 Oct 17:17:17 17:25:35 89° 72° (ENE) 17:33:54 29.400 - 29.500 MHz
TMSAT-1 23 Oct 17:28:29 17:31:33 16° 268° (W) 17:34:38 436.925 FM
UOSAT-12 23 Oct 17:32:04 17:35:01 16° 315° (NW) 17:38:00 437.025 FM, 437.400 FM
Saudisat 1A 23 Oct 17:32:09 17:36:13 34° 53° (NE) 17:40:14 436.775 MHz
JAS-2 23 Oct 17:57:39 18:02:58 38° 67° (ENE) 18:08:56 435.800 - 435.900 CW/SSB, 435.910 FM
OPAL 23 Oct 18:30:47 18:35:09 31° 99° (E) 18:39:29 ?
Uosat F 23 Oct 18:31:13 18:35:13 24° 265° (W) 18:39:14 435.120 FM
Hamsat 23 Oct 18:58:06 19:02:20 89° 257° (WSW) 19:06:33 145.90 MHz
Saudisat 1A 23 Oct 19:12:11 19:15:33 22° 249° (WSW) 19:18:55 436.775 MHz
AO-7 23 Oct 19:14:38 19:19:15 16° 268° (W) 19:23:54 29.400 - 29.500 MHz
ISS 23 Oct 19:26:52 19:28:19 12° 21° (NNE) 19:29:46 145.800 FM
SO-67 23 Oct 19:33:58 19:36:40 22° 72° (ENE) 19:39:24 435.3500 MHz FM
JAS-2 23 Oct 19:43:12 19:48:08 29° 267° (W) 19:53:36 435.800 - 435.900 CW/SSB, 435.910 FM
OPAL 23 Oct 20:09:47 20:13:54 27° 294° (WNW) 20:18:00 ?
STRAND 1 23 Oct 20:12:45 20:17:33 38° 98° (E) 20:22:19 ?
ISS 23 Oct 21:02:14 21:05:33 63° 39° (NE) 21:08:51 145.800 FM
SO-67 23 Oct 21:07:22 21:09:36 16° 266° (W) 21:11:50 435.3500 MHz FM
KITSAT 1 23 Oct 21:11:37 21:17:38 22° 42° (NE) 21:23:36 435.175 FM
RS-15 23 Oct 21:17:45 21:21:31 12° 97° (E) 21:25:15 29.354 - 29.394 USB, Beacon 29.352 USB
HO-68 23 Oct 21:19:13 21:25:54 44° 67° (ENE) 21:32:36 435.675 MHz FM
STRAND 1 23 Oct 21:52:29 21:56:28 23° 294° (WNW) 22:00:27 ?
UKube-1 23 Oct 22:02:34 22:06:14 27° 69° (ENE) 22:09:55 145.840 MHz, 145.915 MHz
FUNcube-1 23 Oct 22:39:51 22:43:41 27° 70° (ENE) 22:47:28 145.950 - 145.970 MHz USB
ISS 23 Oct 22:40:51 22:41:50 11° 233° (SW) 22:42:49 145.800 FM
Oscar 11 23 Oct 22:44:26 22:48:45 72° 76° (ENE) 22:53:04 145.825 FM, Beacon 2401.500 USB
SO-50 23 Oct 22:51:53 22:56:27 40° 54° (NE) 23:01:02 436.795 FM
KITSAT 1 23 Oct 23:05:57 23:14:05 89° 243° (WSW) 23:22:09 435.175 FM
HO-68 23 Oct 23:07:25 23:13:39 32° 263° (W) 23:19:57 435.675 MHz FM
RS-15 23 Oct 23:20:50 23:31:47 72° 115° (ESE) 23:42:37 29.354 - 29.394 USB, Beacon 29.352 USB
ZACube-1 23 Oct 23:30:09 23:34:45 84° 258° (WSW) 23:39:20 437.345 MHz
UKube-1 23 Oct 23:38:54 23:42:21 23° 264° (W) 23:45:50 145.840 MHz, 145.915 MHz
FUNcube-1 24 Oct 00:16:06 00:19:57 26° 264° (W) 00:23:47 145.950 - 145.970 MHz USB
UOSAT-12 24 Oct 00:22:00 00:26:09 30° 51° (NE) 00:30:13 437.025 FM, 437.400 FM
MaSat-1 24 Oct 00:26:47 00:30:37 33° 109° (ESE) 00:34:11 437.345 MHz
SO-50 24 Oct 00:33:01 00:36:46 22° 249° (WSW) 00:40:30 436.795 FM
KITSAT 1 24 Oct 01:04:04 01:08:19 15° 260° (W) 01:12:34 435.175 FM
RS-15 24 Oct 01:35:26 01:45:01 34° 318° (NW) 01:54:40 29.354 - 29.394 USB, Beacon 29.352 USB
Oscar 10/S400 24 Oct 01:57:07 03:04:38 26° 241° (WSW) 06:11:34 145.825 - 145.975 CW/USB, Beacon 145.810 USB
UOSAT-12 24 Oct 02:02:11 02:06:12 29° 248° (WSW) 02:10:10 437.025 FM, 437.400 FM
MaSat-1 24 Oct 02:03:23 02:06:18 18° 301° (WNW) 02:09:03 437.345 MHz
JAS-1B 24 Oct 02:27:35 02:33:06 25° 97° (E) 02:39:20 435.800 - 435.900 CW/SSB
Oscar 19 24 Oct 02:29:51 02:33:42 21° 94° (E) 02:37:31 437.125 CW, 437.150 USB
AO-27 24 Oct 02:46:59 02:48:43 12° 91° (E) 02:50:27 436.795 MHz FM
Oscar 16 24 Oct 03:14:30 03:19:35 62° 101° (ESE) 03:24:38 437.025 USB, Beacon 2401.1428
AO-Echo 24 Oct 03:17:30 03:22:20 34° 97° (E) 03:27:06 ?
Uribyol 2 24 Oct 03:32:35 03:37:24 37° 98° (E) 03:42:10 436.500 FM
PCSat 24 Oct 03:36:23 03:37:47 11° 102° (ESE) 03:39:11 145.825 MHz
ITAMSAT 1 24 Oct 03:38:19 03:43:13 40° 99° (E) 03:48:04 435.822 SSB
Gurwin Techsat 1B 24 Oct 03:52:54 03:57:29 29° 96° (E) 04:02:01 435.225 FM
RS-15 24 Oct 03:57:04 04:02:22 14° 352° (N) 04:07:44 29.354 - 29.394 USB, Beacon 29.352 USB
TMSAT-1 24 Oct 04:04:49 04:09:18 27° 96° (E) 04:13:45 436.925 FM
Oscar 19 24 Oct 04:08:24 04:13:08 40° 289° (WNW) 04:17:52 437.125 CW, 437.150 USB
JAS-1B 24 Oct 04:17:16 04:23:47 57° 288° (WNW) 04:31:35 435.800 - 435.900 CW/SSB
AO-27 24 Oct 04:23:29 04:28:42 73° 286° (WNW) 04:33:53 436.795 MHz FM
Sapphire 24 Oct 04:52:30 04:57:47 58° 113° (ESE) 05:03:06 437.095 MHz 1200 baud AX-25 AFSK
Oscar 16 24 Oct 04:55:37 04:58:22 15° 297° (WNW) 05:01:07 437.025 USB, Beacon 2401.1428
AO-Echo 24 Oct 04:56:28 05:00:54 27° 292° (WNW) 05:05:19 ?
Uosat F 24 Oct 05:03:46 05:05:50 12° 91° (E) 05:07:54 435.120 FM
Uribyol 2 24 Oct 05:12:31 05:16:38 24° 293° (WNW) 05:20:43 436.500 FM
PCSat 24 Oct 05:15:00 05:20:24 82° 297° (WNW) 05:25:52 145.825 MHz
ITAMSAT 1 24 Oct 05:18:24 05:22:25 23° 294° (WNW) 05:26:25 435.822 SSB
AO-7 24 Oct 05:21:57 05:29:23 35° 98° (E) 05:36:46 29.400 - 29.500 MHz
Gurwin Techsat 1B 24 Oct 05:32:44 05:37:23 32° 291° (WNW) 05:42:01 435.225 FM
OPAL 24 Oct 05:43:14 05:48:07 45° 69° (ENE) 05:52:58 ?
TMSAT-1 24 Oct 05:44:29 05:49:11 33° 291° (WNW) 05:53:52 436.925 FM
RS-15 24 Oct 06:12:57 06:21:01 22° 30° (NNE) 06:29:15 29.354 - 29.394 USB, Beacon 29.352 USB
Sapphire 24 Oct 06:37:41 06:41:35 20° 310° (NW) 06:45:30 437.095 MHz 1200 baud AX-25 AFSK
Uosat F 24 Oct 06:40:01 06:45:01 65° 286° (WNW) 06:50:00 435.120 FM
Hamsat 24 Oct 06:46:55 06:49:51 18° 94° (E) 06:52:48 145.90 MHz
JAS-2 24 Oct 06:52:44 07:00:17 50° 98° (E) 07:07:44 435.800 - 435.900 CW/SSB, 435.910 FM
PCSat 24 Oct 07:02:24 07:04:40 13° 316° (NW) 07:06:57 145.825 MHz
AO-7 24 Oct 07:14:23 07:22:15 49° 295° (WNW) 07:30:07 29.400 - 29.500 MHz
OPAL 24 Oct 07:23:29 07:27:08 20° 264° (W) 07:30:48 ?
STRAND 1 24 Oct 07:26:24 07:31:14 44° 71° (ENE) 07:36:07 ?
Saudisat 1A 24 Oct 07:38:08 07:40:33 15° 109° (ESE) 07:42:58 436.775 MHz
Hamsat 24 Oct 08:22:08 08:25:50 31° 288° (WNW) 08:29:32 145.90 MHz
RS-15 24 Oct 08:24:45 08:35:56 69° 57° (ENE) 08:47:35 29.354 - 29.394 USB, Beacon 29.352 USB
SO-67 24 Oct 08:31:35 08:34:46 35° 98° (E) 08:37:57 435.3500 MHz FM
JAS-2 24 Oct 08:38:09 08:44:56 35° 294° (WNW) 08:51:44 435.800 - 435.900 CW/SSB, 435.910 FM
PANSAT 24 Oct 08:45:58 08:48:22 16° 166° (SSE) 08:50:47 not established
STRAND 1 24 Oct 09:07:00 09:10:36 19° 266° (W) 09:14:14 ?
Saudisat 1A 24 Oct 09:15:26 09:19:40 49° 304° (NW) 09:23:57 436.775 MHz
